Regional Weather Roundup
Issued by NWS

Home | Current Version | Previous Version | Text Only | Print | Product List | Glossary On
Versions: 1 2 3 4 5 6 7 8 9 10 11 12 13 14 15 16 17 18 19 20 21 22 23 24 25 26 27 28 29 30 31 32 33 34 35 36 37 38 39 40 41 42 43 44 45 46 47 48 49 50
000
ASUS44 KLIX 251011
RWRLA
LOUISIANA WEATHER ROUNDUP
NATIONAL WEATHER SERVICE NEW ORLEANS LA
500 AM CDT MON JUL 25 2016

NOTE: "FAIR" INDICATES FEW OR NO CLOUDS BELOW 12,000 FEET WITH NO
      SIGNIFICANT WEATHER AND/OR OBSTRUCTIONS TO VISIBILITY.
      SKY/WX - SKY CONDITION AND SIGNIFICANT WEATHER.
      TMP - AIR TEMPERATURE.    DP   - DEWPOINT TEMPERATURE.
      RH  - RELATIVE HUMIDITY.  PRES - PRESSURE.
      HX  - HEAT INDEX.         WCI  - WIND CHILL INDEX.

*  THESE STATIONS ARE NOT NWS OR FAA STATIONS AND ARE NOT UNDER
   NWS QUALITY CONTROL.

LAZ040-048-061>063-065-066-069-251100-
SOUTHEAST LOUISIANA

CITY           SKY/WX    TMP DP  RH WIND       PRES   REMARKS
N.O. AUDUBON     N/A     81  78  90 MISG        N/A
N.O. INTL ARPT CLOUDY    81  77  88 CALM      29.93S
N.O. LAKEFRONT PTCLDY    82  75  79 E3        29.94S
N.O. DOWNTOWN* FAIR      82  76  81 CALM      29.95R
RESERVE*       FAIR      77  75  93 CALM      29.94S
SLIDELL        CLEAR     75  74  96 CALM      29.94R
BATON ROUGE    CLOUDY    76  73  91 NE3       29.95S
BOOTHVILLE     CLOUDY    80  76  87 CALM      29.94R
BELLE CHASSE   MOCLDY    76  76 100 NE3       29.93S
BOGALUSA*      FAIR      76  72  89 CALM      29.98R
GALLIANO*      PTSUNNY   67  67 100 CALM      29.93S
NEW ROADS*     FAIR      75  74  99 CALM      29.95S FOG
GONZALES*      FAIR      75  75 100 CALM      29.93S
HAMMOND*       PTCLDY    73  70  88 CALM      29.95R FOG
HOUMA*         CLOUDY    76  75  98 CALM      29.93S
PORT FOURCHON* SUNNY     82  75  78 CALM      29.93S

$$

LAZ041-044-053-054-251100-
SOUTHWEST LOUISIANA

CITY           SKY/WX    TMP DP  RH WIND       PRES   REMARKS
LAKE CHARLES   CLOUDY    78  75  90 NE5       29.93R
LAFAYETTE      CLOUDY    78  77  96 CALM      29.94R
PATTERSON      PTCLDY    77  76  96 CALM      29.94S
SALT POINT       N/A     79  76  90 CALM      29.92R
NEW IBERIA     CLOUDY    79  77  94 E3        29.95R
CHENAULT AIRPK CLOUDY    76  74  95 CALM      29.93S

$$

LAZ027-028-251100-
CENTRAL LOUISIANA

CITY           SKY/WX    TMP DP  RH WIND       PRES   REMARKS
FORT POLK      CLOUDY    75  74  96 N3        29.95R
ALEXANDRIA INT PTCLDY    75  74  96 NW5       29.93S
ALEXANDRIA     CLOUDY    75  74  96 VRB3      29.96R

$$

LAZ001-002-251100-
NORTHWEST LOUISIANA

CITY           SKY/WX    TMP DP  RH WIND       PRES   REMARKS
SHREVEPORT     MOCLDY    76  74  93 CALM      29.95S
BARKSDALE AFB  MOCLDY    73  73 100 NE2       29.96S
DTN SHREVEPORT PTCLDY    75  72  90 CALM      29.96S

$$

LAZ014-016-251100-
NORTHEAST LOUISIANA

CITY           SKY/WX    TMP DP  RH WIND       PRES   REMARKS
MONROE         CLEAR     74  74 100 NE3       29.97S
TALLULAH       PTCLDY    75  72  90 CALM      29.97R

$$




USA.gov is the U.S. government's official web portal to all federal, state and local government web resources and services.